TimeAKDT,TemperatureF,Dew PointF,Humidity,Sea Level PressureIn,VisibilityMPH,Wind Direction,Wind SpeedMPH,Gust SpeedMPH,PrecipitationIn,Events,Conditions,WindDirDegrees,DateUTC
12:02 AM,37.4,37.4,100,30.07,8.0,SW,11.5,18.4,0.00,Rain,Light Rain,220,2012-10-07 08:02:00
12:13 AM,37.4,37.4,100,30.07,10.0,SW,9.2,-,0.00,,Overcast,220,2012-10-07 08:13:00
12:31 AM,37.4,35.6,93,30.08,10.0,SW,12.7,-,0.00,,Mostly Cloudy,220,2012-10-07 08:31:00
12:58 AM,37.9,36.0,93,30.12,10.0,SW,10.4,-,0.00,,Overcast,220,2012-10-07 08:58:00
1:35 AM,37.4,35.6,93,30.10,10.0,SSW,11.5,-,N/A,,Overcast,210,2012-10-07 09:35:00
1:50 AM,37.4,35.6,93,30.11,10.0,SW,12.7,-,N/A,,Overcast,220,2012-10-07 09:50:00
1:58 AM,37.0,36.0,96,30.15,10.0,SW,11.5,-,N/A,,Overcast,220,2012-10-07 09:58:00
2:52 AM,37.4,35.6,93,30.12,10.0,SW,6.9,-,N/A,,Overcast,220,2012-10-07 10:52:00
2:58 AM,37.0,36.0,96,30.16,10.0,SW,6.9,-,N/A,,Overcast,220,2012-10-07 10:58:00
3:58 AM,37.0,36.0,96,30.18,9.0,SSW,6.9,-,N/A,,Overcast,200,2012-10-07 11:58:00
4:58 AM,37.0,37.0,100,30.19,9.0,SW,5.8,-,N/A,,Overcast,230,2012-10-07 12:58:00
5:01 AM,37.4,37.4,100,30.15,9.0,SW,8.1,-,N/A,,Overcast,230,2012-10-07 13:01:00
5:27 AM,37.4,37.4,100,30.16,9.0,SSW,5.8,-,N/A,,Overcast,200,2012-10-07 13:27:00
5:35 AM,35.6,35.6,100,30.16,7.0,South,6.9,-,N/A,,Mostly Cloudy,190,2012-10-07 13:35:00
5:39 AM,35.6,35.6,100,30.16,1.8,SSW,5.8,-,N/A,,Mostly Cloudy,200,2012-10-07 13:39:00
5:46 AM,35.6,35.6,100,30.16,1.0,SSW,4.6,-,N/A,,Mostly Cloudy,200,2012-10-07 13:46:00
5:57 AM,36.0,36.0,100,30.21,0.8,Calm,Calm,-,N/A,,Mostly Cloudy,0,2012-10-07 13:57:00
6:03 AM,35.6,35.6,100,30.17,1.2,West,3.5,-,N/A,,Overcast,270,2012-10-07 14:03:00
6:06 AM,35.6,35.6,100,30.17,3.0,West,4.6,-,N/A,,Overcast,280,2012-10-07 14:06:00
6:10 AM,35.6,35.6,100,30.17,8.0,West,5.8,-,N/A,,Overcast,280,2012-10-07 14:10:00
6:18 AM,35.6,35.6,100,30.17,10.0,West,4.6,-,N/A,,Overcast,270,2012-10-07 14:18:00
6:54 AM,33.8,33.8,100,30.18,10.0,WNW,4.6,-,N/A,,Scattered Clouds,300,2012-10-07 14:54:00
6:58 AM,34.0,34.0,100,30.21,10.0,NW,4.6,-,N/A,,Scattered Clouds,310,2012-10-07 14:58:00
7:51 AM,32.0,32.0,100,30.18,9.0,WNW,8.1,-,N/A,,Partly Cloudy,290,2012-10-07 15:51:00
7:58 AM,32.0,32.0,100,30.22,3.0,WNW,9.2,-,N/A,,Scattered Clouds,290,2012-10-07 15:58:00
8:00 AM,32.0,32.0,100,30.18,2.0,WNW,8.1,-,N/A,,Mostly Cloudy,290,2012-10-07 16:00:00
8:04 AM,32.0,32.0,100,30.18,1.2,WNW,8.1,-,N/A,,Mostly Cloudy,300,2012-10-07 16:04:00
8:06 AM,32.0,32.0,100,30.18,1.0,WNW,6.9,-,N/A,,Mostly Cloudy,290,2012-10-07 16:06:00
8:11 AM,32.0,32.0,100,30.18,0.8,WNW,6.9,-,N/A,,Mostly Cloudy,290,2012-10-07 16:11:00
8:19 AM,32.0,32.0,100,30.19,0.8,WNW,4.6,-,N/A,,Overcast,290,2012-10-07 16:19:00
8:30 AM,32.0,32.0,100,30.19,0.5,Calm,Calm,-,N/A,Fog,Fog,0,2012-10-07 16:30:00
8:44 AM,32.0,30.2,93,30.20,0.5,Calm,Calm,-,N/A,Fog,Fog,0,2012-10-07 16:44:00
8:49 AM,32.0,30.2,93,30.20,0.2,Calm,Calm,-,N/A,Fog,Fog,0,2012-10-07 16:49:00
8:58 AM,32.0,30.9,96,30.24,0.2,Calm,Calm,-,N/A,Fog,Fog,0,2012-10-07 16:58:00
9:06 AM,30.2,30.2,100,30.21,0.5,Calm,Calm,-,N/A,Fog,Light Freezing Fog,0,2012-10-07 17:06:00
9:10 AM,30.2,30.2,100,30.21,0.8,North,3.5,-,N/A,,Overcast,360,2012-10-07 17:10:00
9:14 AM,32.0,30.2,93,30.21,1.2,North,5.8,-,N/A,,Overcast,350,2012-10-07 17:14:00
9:16 AM,32.0,30.2,93,30.21,3.0,North,5.8,-,N/A,,Overcast,350,2012-10-07 17:16:00
9:57 AM,32.0,30.9,96,30.25,10.0,NW,5.8,-,N/A,,Scattered Clouds,320,2012-10-07 17:57:00
10:33 AM,32.0,32.0,100,30.23,1.2,West,4.6,-,N/A,,Clear,260,2012-10-07 18:33:00
10:37 AM,32.0,32.0,100,30.23,1.0,WSW,4.6,-,N/A,,Clear,250,2012-10-07 18:37:00
10:43 AM,32.0,32.0,100,30.23,3.0,West,4.6,-,N/A,,Clear,270,2012-10-07 18:43:00
10:58 AM,32.0,30.9,96,30.27,9.0,West,3.5,-,N/A,,Clear,270,2012-10-07 18:58:00
11:58 AM,34.0,33.1,96,30.27,9.0,North,9.2,-,N/A,,Clear,350,2012-10-07 19:58:00
12:58 PM,37.0,34.0,89,30.29,9.0,North,11.5,-,N/A,,Clear,350,2012-10-07 20:58:00
1:28 PM,37.4,33.8,87,30.26,9.0,North,5.8,-,N/A,,Mostly Cloudy,360,2012-10-07 21:28:00
1:58 PM,37.9,34.0,86,30.30,10.0,North,5.8,-,N/A,,Overcast,10,2012-10-07 21:58:00
2:58 PM,37.9,34.0,86,30.30,9.0,NNE,5.8,-,N/A,,Overcast,20,2012-10-07 22:58:00
3:23 PM,37.4,33.8,87,30.26,10.0,North,4.6,-,N/A,,Scattered Clouds,10,2012-10-07 23:23:00
3:41 PM,39.2,33.8,81,30.26,9.0,North,6.9,-,N/A,,Mostly Cloudy,360,2012-10-07 23:41:00
3:58 PM,39.0,33.1,79,30.29,10.0,North,9.2,-,N/A,,Mostly Cloudy,360,2012-10-07 23:58:00
4:34 PM,39.2,32.0,75,30.24,9.0,North,8.1,-,N/A,,Mostly Cloudy,10,2012-10-08 00:34:00
4:53 PM,39.2,32.0,75,30.24,10.0,North,8.1,-,N/A,,Scattered Clouds,350,2012-10-08 00:53:00
4:58 PM,39.0,32.0,76,30.28,10.0,North,8.1,-,N/A,,Scattered Clouds,350,2012-10-08 00:58:00
5:07 PM,39.2,32.0,75,30.24,10.0,North,8.1,-,N/A,,Mostly Cloudy,10,2012-10-08 01:07:00
5:11 PM,39.2,32.0,75,30.24,10.0,North,9.2,-,N/A,,Scattered Clouds,10,2012-10-08 01:11:00
5:58 PM,39.0,32.0,76,30.29,10.0,North,6.9,-,N/A,,Partly Cloudy,360,2012-10-08 01:58:00
6:58 PM,37.9,32.0,79,30.28,10.0,North,6.9,-,N/A,,Partly Cloudy,10,2012-10-08 02:58:00
7:58 PM,36.0,30.9,82,30.30,10.0,North,6.9,-,N/A,,Clear,360,2012-10-08 03:58:00
8:58 PM,35.1,30.9,85,30.30,10.0,North,8.1,-,N/A,,Partly Cloudy,360,2012-10-08 04:58:00
9:58 PM,34.0,30.9,89,30.32,10.0,North,6.9,-,N/A,,Overcast,350,2012-10-08 05:58:00
10:58 PM,33.1,30.0,89,30.32,10.0,NNW,9.2,-,N/A,,Scattered Clouds,340,2012-10-08 06:58:00
11:58 PM,33.1,30.0,89,30.31,10.0,North,10.4,-,N/A,,Clear,350,2012-10-08 07:58:00